DW3589 Weather Reports


time (UTC)temp
F
wind
direction
speed
knots
gust
knots
rain 1hr
in
rain 24hr
in
rain mn
in
humidity
%
barometer
mb
20260504024018 58 0.0 0.0 0.00 0.00 0.00 86 1016.3
20260504023018 58 0.0 0.0 0.00 0.00 0.00 86 1016.3
20260504022038 58 0.0 0.0 0.00 0.00 0.00 86 1016.2
20260504021018 58 0.0 0.0 0.00 0.00 0.00 86 1016.3
20260504020018 58 0.0 0.0 0.00 0.00 0.00 86 1016.4
20260504015018 58 0.0 0.0 0.00 0.00 0.00 86 1016.4
20260504014039 58 0.0 0.0 0.00 0.00 0.00 86 1016.4
20260504013018 58 0.0 0.0 0.00 0.00 0.00 86 1016.5
20260504012018 58 0.0 0.0 0.00 0.00 0.00 86 1016.6
20260504011018 58 0.0 0.0 0.00 0.00 0.00 86 1016.7
20260504010019 58 0.0 0.0 0.00 0.00 0.00 86 1016.8
20260504005039 58 0.0 0.0 0.00 0.00 0.00 86 1016.9
20260504004018 58 0.0 0.0 0.00 0.00 0.00 85 1017.1
20260504003019 58 0.0 0.0 0.00 0.00 0.00 85 1017.1
20260504002018 58 0.0 0.0 0.00 0.00 0.00 85 1017.2
20260504001019 59 0.0 0.0 0.00 0.00 0.00 85 1017.3
20260504000018 59 0.0 0.0 0.00 0.00 0.00 84 1017.4
20260503235019 59 0.0 0.0 0.00 0.00 0.00 84 1017.5
20260503234018 59 0.0 0.0 0.00 0.00 0.00 84 1017.6
20260503233018 59 0.0 0.0 0.00 0.00 0.00 84 1017.7
20260503232018 59 0.0 0.0 0.00 0.00 0.00 84 1017.8
20260503231019 59 0.0 0.0 0.00 0.00 0.00 84 1017.7
20260503230019 59 0.0 0.0 0.00 0.00 0.00 84 1017.8
20260503225019 59 0.0 0.0 0.00 0.00 0.00 83 1017.9
20260503224019 59 0.0 0.0 0.00 0.00 0.00 83 1017.8
20260503223018 59 0.0 0.0 0.00 0.00 0.00 82 1017.9
20260503222018 60 0.0 0.0 0.00 0.00 0.00 81 1017.9
20260503221019 60 0.0 0.0 0.00 0.00 0.00 81 1017.8
20260503220018 60 0.0 0.0 0.00 0.00 0.00 80 1017.9
20260503215019 60 0.0 0.0 0.00 0.00 0.00 80 1017.8
20260503214019 61 0.0 0.0 0.00 0.00 0.00 79 1017.8
20260503213020 61 0.0 0.0 0.00 0.00 0.00 78 1017.6
20260503212019 61 0.0 0.0 0.00 0.00 0.00 78 1017.6
20260503211019 61 0.0 0.0 0.00 0.00 0.00 77 1017.5
20260503210019 62 0.0 0.0 0.00 0.00 0.00 76 1017.5
20260503205019 62 0.0 0.0 0.00 0.00 0.00 75 1017.3
20260503204020 63 0.0 0.0 0.00 0.00 0.00 75 1017.1
20260503203019 63 0.0 0.0 0.00 0.00 0.00 74 1017.0
20260503202019 63 0.0 0.0 0.00 0.00 0.00 74 1016.8
20260503201019 64 0.0 0.0 0.00 0.00 0.00 75 1016.7
20260503200039 65 0.0 0.0 0.00 0.00 0.00 75 1016.5
20260503195020 65 0.0 0.0 0.00 0.00 0.00 74 1016.3
20260503194020 65 0.0 0.0 0.00 0.00 0.00 74 1016.1
20260503193019 66 0.0 0.0 0.00 0.00 0.00 73 1016.0
20260503192019 66 0.0 0.0 0.00 0.00 0.00 72 1015.9
20260503191020 67 0.0 0.0 0.00 0.00 0.00 71 1015.8
20260503190039 67 0.0 0.0 0.00 0.00 0.00 70 1015.8
20260503185019 68 0.0 0.0 0.00 0.00 0.00 69 1015.7
20260503184019 68 0.0 0.0 0.00 0.00 0.00 67
20260503183020 69 0.0 0.0 0.00 0.00 0.00 64
20260503182020 70 0.0 0.0 0.00 0.00 0.00 62
20260503181020 70 0.0 0.0 0.00 0.00 0.00 62
20260503180040 71 0.0 0.0 0.00 0.00 0.00 60
20260503175019 71 0.0 0.0 0.00 0.00 0.00 60
20260503174019 71 0.0 0.0 0.00 0.00 0.00 60
20260503173020 72 0.0 0.0 0.00 0.00 0.00 58
20260503172019 72 0.0 0.0 0.00 0.00 0.00 57
20260503171020 71 0.0 0.0 0.00 0.00 0.00 58 1015.4
20260503131017 73 0.0 0.0 0.00 0.00 0.00 54 1016.5
20260503081018 64 0.0 0.0 0.00 0.00 0.00 85 1017.8
20260503072018 63 0.0 0.0 0.00 0.00 0.00 87 1017.6
20260503071018 63 0.0 0.0 0.00 0.00 0.00 87 1017.6
20260503055042 0 0.0 0.0 0.00 0.00 0.00
20260503054514 0 0.0 0.0 0.00 0.00 0.00
20260503054038 0 0.0 0.0 0.00 0.00 0.00
20260503053038 0 0.0 0.0 0.00 0.00 0.00
20260503052524 0 0.0 0.0 0.00 0.00 0.00
20260503052015 0 0.0 0.0 0.00 0.00 0.00
20260503051518 0 0.0 0.0 0.00 0.00 0.00
20260503050518 61 0.0 0.0 0.00 0.00 0.00 87
20260503050138 61 0.0 0.0 0.00 0.00 0.00 87 1016.8
20260503045533 61 0.0 0.0 0.00 0.00 0.00 87 1016.9
20260503044518 62 0.0 0.0 0.00 0.00 0.00 87 1016.9
20260503043518 62 0.0 0.0 0.00 0.00 0.00 86 1016.8
20260503042519 62 0.0 0.0 0.00 0.00 0.00 86 1016.9
20260503041518 62 0.0 0.0 0.00 0.00 0.00 86 1016.9
20260503040518 63 0.0 0.0 0.00 0.00 0.00 86 1017.0
20260503035518 63 0.0 0.0 0.00 0.00 0.00 85 1017.2
20260503034518 63 0.0 0.0 0.00 0.00 0.00 85 1017.4
20260503033518 63 0.0 0.0 0.00 0.00 0.00 85 1017.4
20260503032518 62 0.0 0.0 0.00 0.00 0.00 85 1017.4
20260503031519 62 0.0 0.0 0.00 0.00 0.00 85 1017.3
20260503030518 62 0.0 0.0 0.00 0.00 0.00 84 1017.3
20260503025518 62 0.0 0.0 0.00 0.00 0.00 84 1017.2
20260503024519 63 0.0 0.0 0.00 0.00 0.00 84 1017.2